Location: Bukovany
(49.8234°N, 14.6297°E)
Time: 18:11:13
(UTC+00:00)

SMAP - Pass Details

Date: 17 November 2025
Orbit: 681 x 683 km, 98.1° (Epoch: 10 December)

Event Time Altitude Azimuth Distance (km) Brightness Sun altitude
Rises 15:57:56 0° 155° (SSE) 3,035 6.4 -7.0°
Reaches altitude 10° 16:00:10 10° 152° (SSE) 2,124 5.5 -7.4°
Maximum altitude 16:04:45 64° 72° (ENE) 759 3.1 -8.1°
Drops below altitude 10° 16:09:23 10° 351° (N) 2,139 5.5 -8.8°
Sets 16:11:39 0° 349° (N) 3,059 6.3 -9.1°
